Temp
25 24 24 24 23 23 23 23 23 22 21 21 20 20 20 21 21 21 20 20 20 20 19 18 18 17 17 18 16 16 15 15 15 14 12 11 11 11 11 10 10 10 10
25 25 25 24 23 23 23 23 22 22 22 22 21 20 20 21 21 21 21 21 20 20 20 19 18 18 18 18 17 16 16 15 15 14 12 11 11 11 10 10 10 10 10
26 25 25 25 23 24 23 22 21 21 21 21 20 21 21 21 21 21 21 21 20 20 20 20 19 19 19 18 17 16 16 15 15 14 13 10 11 10 10 10 10 10 10
25 25 25 25 23 23 22 21 21 21 21 21 21 21 21 21 21 21 20 21 21 21 20 20 19 19 19 18 17 16 16 15 15 14 13 11 11 11 10 10 10 11 10
25 25 25 24 23 22 21 21 21 21 21 21 20 21 21 21 21 21 21 21 20 20 20 20 20 19 19 18 17 16 16 15 15 14 13 11 11 11 11 11 10 10 10
25 24 23 23 22 22 21 22 21 20 20 20 20 20 20 20 20 20 20 20 20 20 20 20 19 19 19 18 17 16 16 16 15 14 13 12 12 12 12 11 11 10 10
23 23 22 22 22 22 22 22 21 20 20 20 20 20 20 19 19 19 20 19 20 20 20 19 19 19 19 18 17 16 16 15 15 14 14 14 13 13 12 11 11 10 10
22 21 21 21 21 21 21 21 20 20 20 19 19 19 19 19 19 19 19 19 19 19 19 19 19 18 18 17 17 16 16 16 15 14 13 13 13 13 12 12 11 10 10
20 19 19 19 19 20 20 20 20 19 19 19 19 19 18 18 18 18 19 19 19 19 19 18 17 17 17 16 16 16 17 16 16 14 12 12 12 12 12 12 12 11 11
19 19 19 19 19 19 19 19 19 19 19 19 18 18 17 17 17 18 18 19 19 19 18 17 16 16 15 15 15 16 16 16 15 14 13 12 12 12 11 11 11 12 11
19 19 19 19 18 18 18 18 19 18 18 17 18 16 17 17 17 17 17 17 17 17 17 16 15 15 15 15 14 14 15 15 14 13 13 12 11 12 12 12 11 11 12
18 18 18 18 18 19 19 19 18 17 17 17 16 15 15 15 15 15 16 15 16 16 16 16 15 15 16 15 14 14 14 15 15 13 12 12 11 12 11 11 11 11 11
17 17 18 18 18 17 17 17 17 17 17 17 17 14 13 14 16 16 16 15 16 16 15 15 15 15 14 15 15 14 14 14 15 14 14 12 12 12 11 11 11 11 11
16 16 17 17 16 16 16 16 16 16 16 16 16 15 12 12 13 15 15 16 16 16 16 15 15 15 15 14 15 15 14 14 14 13 13 12 11 11 11 11 11 11 10
16 16 16 16 16 15 15 15 15 15 14 14 14 14 15 15 15 15 15 16 16 16 15 15 15 14 15 15 14 16 14 14 14 13 12 12 12 12 11 11 11 11 10
16 15 15 15 15 14 14 14 13 14 13 13 13 13 13 13 14 14 14 14 14 15 15 14 14 14 14 14 15 14 14 13 14 14 13 13 13 12 11 11 11 11 11
15 15 15 15 14 14 14 13 13 14 13 13 13 13 14 13 13 13 13 12 12 13 14 14 13 13 14 14 14 14 14 16 14 13 13 13 13 12 12 11 11 11 11
14 14 14 14 13 13 13 13 13 13 13 13 13 13 13 13 13 12 11 11 11 12 12 13 13 13 13 14 14 14 14 14 15 14 13 13 13 12 12 12 12 12 11
14 13 13 13 13 13 12 12 12 13 13 13 13 13 12 12 12 11 10 10 11 12 12 12 13 13 13 13 13 13 14 14 14 14 14 13 13 12 12 12 12 12 12
13 13 13 13 13 12 12 12 13 13 12 12 12 12 13 12 12 11 10 10 9 10 11 11 12 12 13 13 13 13 13 13 13 14 12 13 13 12 12 12 12 12 12
13 12 12 12 12 12 13 13 12 12 12 12 11 12 11 9 9 8 8 8 7 9 9 10 11 11 12 12 12 13 13 13 13 13 13 12 12 12 12 12 12 12 12
12 12 12 12 13 13 13 12 12 11 12 11 10 10 8 6 4 4 4 4 5 6 6 8 9 11 11 11 12 12 12 13 13 13 13 13 12 12 13 12 12 12 12
12 12 12 12 12 12 12 11 11 11 10 10 9 8 7 6 5 5 4 4 4 5 5 6 7 9 10 11 11 11 12 12 12 12 13 12 12 12 12 12 12 12 12
11 11 11 11 10 11 11 11 10 10 9 7 7 6 6 5 5 5 5 4 4 4 4 5 5 6 9 10 11 11 11 11 12 12 12 12 12 12 12 12 12 12 12
11 10 10 10 9 10 11 10 8 8 7 7 6 6 5 3 3 4 4 4 4 4 4 5 6 6 7 9 9 9 10 11 11 12 12 12 12 12 13 13 12 12 12
10 9 9 9 9 9 9 8 8 8 7 6 5 4 2 3 3 3 3 3 3 3 3 4 5 7 7 8 8 9 9 11 11 11 11 12 12 12 12 13 12 12 12
Height
1522 1525 1528 1530 1532 1533 1533 1534 1534 1535 1535 1536 1536 1535 1535 1534 1532 1530 1529 1527 1523 1521 1516 1509 1511 1511 1510 1508 1507 1506 1505 1505 1507 1506 1507 1510 1512 1514 1517 1518 1520 1521 1523
1518 1522 1524 1527 1529 1530 1531 1532 1532 1532 1532 1532 1532 1532 1531 1531 1529 1527 1524 1522 1520 1516 1512 1508 1505 1506 1505 1505 1503 1504 1504 1505 1505 1504 1505 1508 1511 1513 1515 1518 1520 1521 1523
1513 1516 1519 1523 1525 1526 1528 1529 1529 1530 1529 1529 1529 1528 1527 1526 1524 1522 1519 1516 1514 1511 1507 1505 1503 1503 1503 1501 1501 1502 1502 1503 1503 1503 1502 1505 1508 1512 1515 1518 1520 1521 1522
1508 1510 1514 1518 1521 1523 1524 1525 1525 1526 1526 1526 1526 1525 1523 1521 1519 1517 1514 1512 1508 1506 1504 1501 1501 1501 1500 1498 1499 1500 1501 1502 1501 1502 1502 1504 1508 1512 1515 1517 1519 1520 1522
1504 1506 1509 1513 1516 1519 1520 1521 1523 1522 1521 1522 1522 1520 1519 1517 1515 1511 1509 1506 1503 1501 1500 1498 1497 1497 1498 1496 1496 1497 1500 1501 1501 1501 1502 1505 1507 1510 1512 1516 1518 1519 1520
1499 1502 1505 1509 1512 1514 1515 1518 1519 1518 1518 1518 1518 1515 1513 1511 1509 1506 1504 1502 1499 1497 1495 1494 1494 1494 1494 1495 1495 1494 1497 1498 1500 1500 1502 1504 1507 1510 1512 1514 1516 1517 1518
1496 1499 1502 1506 1508 1511 1513 1514 1516 1515 1515 1514 1513 1510 1508 1507 1504 1502 1500 1499 1496 1494 1492 1491 1492 1492 1491 1491 1493 1494 1496 1497 1498 1500 1502 1503 1505 1509 1511 1513 1515 1516 1517
1492 1495 1498 1502 1505 1507 1509 1511 1512 1512 1511 1510 1508 1507 1505 1503 1501 1500 1498 1496 1494 1492 1491 1489 1488 1489 1489 1492 1492 1492 1495 1495 1495 1499 1501 1504 1505 1508 1512 1513 1515 1516 1516
1491 1493 1496 1499 1502 1505 1506 1507 1508 1509 1509 1508 1506 1505 1503 1501 1500 1498 1496 1494 1492 1490 1489 1488 1486 1487 1488 1490 1492 1490 1493 1494 1495 1497 1500 1503 1506 1507 1511 1512 1513 1515 1515
1489 1491 1493 1496 1499 1501 1503 1505 1506 1506 1505 1506 1505 1503 1502 1500 1498 1497 1495 1494 1492 1490 1488 1486 1486 1486 1487 1490 1491 1492 1493 1494 1495 1497 1498 1501 1505 1506 1509 1511 1513 1513 1514
1485 1488 1490 1493 1495 1498 1500 1502 1503 1503 1504 1504 1503 1502 1501 1499 1498 1497 1496 1494 1492 1490 1487 1485 1485 1485 1487 1489 1491 1493 1494 1494 1497 1497 1499 1500 1503 1505 1508 1510 1511 1512 1512
1481 1483 1486 1489 1493 1496 1498 1499 1500 1501 1502 1501 1501 1501 1500 1499 1498 1498 1496 1495 1493 1490 1488 1487 1486 1485 1487 1490 1491 1492 1494 1495 1496 1499 1499 1502 1502 1504 1507 1509 1510 1510 1509
1483 1484 1485 1487 1490 1493 1496 1497 1498 1499 1500 1499 1498 1498 1499 1499 1498 1497 1495 1494 1493 1490 1489 1487 1487 1489 1489 1489 1491 1493 1495 1496 1496 1498 1501 1502 1505 1506 1507 1508 1508 1509 1508
1480 1481 1482 1483 1486 1491 1493 1495 1496 1497 1497 1497 1496 1495 1496 1497 1495 1494 1493 1491 1490 1489 1489 1488 1488 1488 1489 1491 1490 1493 1495 1497 1498 1499 1501 1503 1506 1507 1507 1507 1507 1507 1506
1479 1480 1479 1481 1484 1487 1490 1492 1493 1495 1497 1496 1494 1493 1492 1492 1492 1490 1490 1489 1488 1487 1486 1486 1486 1487 1487 1488 1487 1488 1494 1496 1498 1499 1500 1502 1503 1506 1506 1506 1507 1507 1506
1480 1482 1482 1480 1481 1485 1488 1491 1492 1492 1494 1495 1493 1492 1491 1490 1488 1489 1488 1487 1486 1485 1485 1485 1484 1484 1485 1486 1486 1487 1488 1494 1497 1499 1500 1501 1502 1503 1505 1506 1507 1507 1506
1481 1482 1482 1481 1480 1484 1485 1488 1490 1490 1491 1492 1492 1491 1489 1488 1486 1486 1486 1485 1483 1484 1483 1483 1483 1482 1481 1482 1484 1485 1487 1487 1494 1496 1498 1499 1500 1500 1502 1504 1506 1507 1506
1480 1484 1484 1482 1482 1486 1486 1486 1487 1486 1489 1490 1488 1487 1486 1483 1481 1483 1482 1483 1482 1481 1481 1481 1481 1481 1480 1479 1480 1481 1484 1484 1485 1489 1494 1496 1498 1498 1499 1501 1503 1506 1507
1477 1481 1485 1484 1482 1485 1486 1486 1487 1486 1485 1485 1484 1484 1482 1480 1477 1479 1479 1479 1478 1479 1479 1479 1479 1479 1478 1477 1477 1476 1479 1481 1482 1483 1487 1491 1493 1496 1496 1498 1500 1503 1505
1480 1476 1483 1483 1483 1483 1484 1484 1482 1484 1485 1484 1481 1480 1475 1476 1475 1475 1475 1474 1474 1475 1475 1475 1476 1476 1475 1474 1473 1473 1474 1476 1478 1478 1479 1482 1487 1489 1493 1495 1497 1499 1502
1477 1475 1480 1481 1483 1481 1481 1482 1482 1481 1483 1482 1478 1473 1472 1473 1471 1470 1471 1470 1469 1470 1470 1472 1472 1471 1472 1471 1469 1469 1470 1470 1472 1473 1475 1476 1479 1484 1487 1490 1492 1496 1497
1474 1477 1480 1480 1479 1479 1479 1480 1480 1480 1478 1477 1477 1470 1471 1472 1471 1470 1469 1467 1467 1466 1466 1466 1466 1467 1467 1466 1466 1465 1464 1466 1467 1467 1467 1471 1473 1476 1481 1484 1487 1490 1494
1474 1476 1477 1479 1478 1477 1477 1478 1478 1477 1472 1475 1472 1469 1468 1468 1470 1469 1468 1466 1464 1463 1462 1462 1462 1462 1461 1461 1460 1459 1459 1459 1459 1459 1462 1464 1467 1471 1473 1477 1482 1484 1489
1474 1475 1475 1480 1478 1477 1474 1473 1475 1472 1472 1472 1468 1466 1466 1467 1468 1467 1465 1463 1461 1459 1458 1456 1455 1455 1456 1456 1457 1455 1454 1453 1453 1455 1456 1457 1460 1464 1468 1471 1476 1479 1482
1473 1475 1479 1479 1478 1474 1474 1476 1475 1472 1471 1468 1467 1465 1465 1465 1465 1465 1463 1461 1458 1457 1455 1453 1451 1449 1449 1450 1450 1450 1449 1448 1447 1447 1449 1450 1451 1455 1459 1463 1467 1471 1475
1480 1481 1478 1479 1477 1475 1477 1477 1473 1471 1470 1467 1466 1465 1465 1465 1464 1464 1462 1459 1457 1455 1452 1450 1447 1445 1444 1443 1443 1442 1442 1441 1440 1441 1442 1443 1443 1446 1450 1454 1458 1463 1467
Wind_Speed
31 28 25 22 21 18 18 17 17 17 17 16 17 18 21 22 20 18 19 22 24 24 25 25 17 17 23 24 18 11 13 11 12 10 10 12 12 10 7 7 7 6 3
30 29 26 24 21 19 16 14 13 12 12 15 16 16 16 16 17 19 23 25 23 21 22 26 19 19 19 22 19 10 10 11 9 7 8 12 15 11 10 8 10 8 6
30 29 29 27 24 19 14 11 11 10 10 11 12 14 17 19 20 19 20 21 22 26 22 21 25 14 15 17 16 9 10 10 7 4 4 15 20 14 13 11 11 8 7
29 29 31 27 24 17 14 15 15 15 15 15 16 16 18 21 22 24 22 24 26 22 18 17 15 12 14 13 11 8 9 11 8 3 5 18 20 15 13 13 12 11 9
23 24 28 25 22 19 19 18 15 17 17 17 18 18 21 25 26 26 25 26 24 20 18 16 10 10 13 11 10 8 8 10 9 6 9 19 21 18 13 11 10 9 9
22 24 26 25 23 23 22 18 18 19 20 19 23 24 26 27 24 22 20 20 20 19 17 15 12 10 10 13 10 8 6 6 8 10 8 16 19 16 13 10 8 9 7
19 21 23 24 24 23 21 19 19 18 19 20 22 23 20 18 16 16 14 14 17 14 11 11 11 11 12 12 9 9 6 6 5 4 6 10 14 11 12 11 8 8 6
19 20 20 21 21 20 18 16 14 14 14 14 15 15 16 13 12 11 9 11 12 12 10 9 9 9 9 9 8 8 5 7 7 10 7 6 6 8 7 5 4 5 8
18 18 18 16 15 13 12 12 11 10 10 10 12 13 10 9 7 7 9 13 9 7 7 8 5 4 7 9 9 7 5 7 8 12 11 12 9 9 11 10 9 6 8
17 16 15 13 12 11 11 9 8 7 7 8 11 11 9 8 9 8 7 4 6 11 11 8 4 8 7 7 7 3 4 5 6 8 13 17 14 12 13 11 9 6 7
20 18 16 14 12 10 8 7 4 4 6 8 8 7 7 6 7 6 5 5 7 10 11 7 4 6 8 10 7 4 3 3 6 7 9 14 14 11 11 12 9 9 9
20 18 16 14 12 9 7 4 3 3 4 5 4 3 5 6 7 7 8 11 12 10 8 5 3 5 5 4 6 5 3 3 5 7 9 12 12 9 9 8 10 10 9
20 18 17 15 12 9 6 5 2 3 4 5 5 3 6 7 9 11 11 12 14 12 8 3 3 7 6 5 6 7 3 3 5 6 6 8 8 8 9 7 7 6 7
21 21 19 17 14 10 7 4 4 6 6 7 8 8 8 9 10 10 9 8 10 10 11 7 9 8 9 8 5 7 5 5 5 7 9 6 8 9 8 7 6 4 4
23 24 23 20 16 12 8 5 5 7 9 10 11 11 12 12 12 12 11 10 10 10 7 6 8 13 14 14 12 10 11 10 11 10 9 7 8 11 10 8 8 3 3
24 23 22 20 17 13 7 4 4 6 8 10 13 15 15 17 14 12 10 11 12 10 8 6 6 8 12 16 14 15 13 13 13 14 12 11 11 12 11 12 10 5 2
19 19 21 18 15 12 8 4 1 4 8 11 14 17 17 16 14 12 9 9 10 8 6 5 7 8 9 13 16 18 14 7 16 17 16 15 15 12 13 14 13 9 4
19 17 17 15 11 7 5 4 3 4 8 13 16 17 18 16 14 15 10 7 8 8 5 6 8 9 8 7 13 15 15 16 18 20 19 18 17 15 14 15 14 12 9
16 14 10 9 8 6 4 3 7 9 12 15 16 15 16 15 13 14 13 10 9 9 9 8 7 9 10 9 9 12 17 19 21 20 23 24 20 20 17 16 16 15 12
14 10 7 6 5 3 3 6 9 12 14 16 17 18 17 15 11 10 10 11 11 11 12 11 10 10 9 11 12 11 12 17 22 26 28 27 25 25 24 18 17 18 17
13 12 7 5 3 4 6 8 10 11 13 14 13 15 18 16 15 13 12 11 11 13 13 14 13 12 14 13 13 13 15 16 17 24 30 29 28 25 26 22 22 19 19
9 6 4 3 2 3 5 7 8 9 10 12 13 11 13 14 14 14 14 14 14 13 15 16 16 18 16 16 16 16 15 15 16 18 24 29 30 28 26 28 26 25 25
6 4 4 2 2 1 2 4 6 8 8 10 11 12 9 8 10 11 13 13 14 15 16 16 17 18 19 18 19 19 19 17 16 17 19 26 28 28 28 28 29 23 25
8 9 9 8 8 9 9 9 8 8 8 9 10 11 10 8 9 11 14 14 14 15 16 17 18 17 19 21 21 23 22 21 20 20 20 21 29 31 29 30 34 26 28
13 14 14 14 15 16 14 12 11 10 10 10 10 10 9 10 10 11 13 15 15 16 15 14 15 14 14 18 21 24 26 26 26 23 22 22 26 28 35 32 36 30 29
16 16 18 18 19 20 17 15 15 14 12 10 10 10 10 11 12 13 14 14 15 15 16 16 17 18 19 21 21 23 25 29 27 27 25 22 22 28 32 31 33 33 29
Wind_Direction
239 241 240 242 243 246 250 257 265 269 268 270 273 283 289 290 289 294 300 303 303 305 296 291 282 279 287 290 272 266 243 248 262 269 238 213 198 200 201 178 190 190 188
240 244 244 245 242 243 247 260 269 277 276 276 278 283 288 295 300 300 302 302 306 310 305 293 277 273 284 283 268 260 243 246 262 279 204 201 189 194 189 176 175 175 176
249 248 247 243 241 239 241 255 263 267 271 275 282 291 293 295 295 298 301 302 302 309 311 312 306 271 282 284 261 227 229 232 244 267 228 189 183 190 188 187 181 195 190
248 246 246 240 239 234 230 242 256 265 274 278 285 287 291 293 299 301 300 303 306 304 306 312 311 275 285 281 259 230 219 225 215 222 174 176 180 180 189 194 191 196 205
241 243 241 233 228 224 230 245 263 275 285 288 286 287 293 293 299 297 296 298 300 301 301 299 292 270 287 272 256 229 216 223 210 204 173 179 183 187 180 189 196 205 222
243 236 230 223 222 224 237 248 266 274 284 290 293 293 295 298 297 297 298 294 300 303 299 293 286 273 279 264 246 227 218 229 218 208 192 194 193 190 184 178 206 219 234
220 221 219 220 225 235 245 254 266 281 287 287 293 300 301 304 299 296 293 301 313 315 313 296 289 278 269 244 243 223 211 216 220 233 201 191 187 184 201 211 229 243 229
205 207 210 212 219 232 243 258 269 276 285 293 300 302 306 298 292 298 312 317 319 320 323 307 284 270 259 235 228 225 223 215 208 199 200 196 177 186 213 215 226 229 242
195 197 202 213 222 230 241 250 256 267 285 302 313 322 319 308 299 305 311 321 335 358 336 315 288 261 217 245 221 220 225 213 196 186 193 211 204 194 209 203 212 249 258
194 197 200 205 210 216 223 232 247 270 288 311 326 332 320 305 292 300 317 359 360 3 5 8 6 216 223 195 201 208 229 225 200 193 195 204 208 195 207 214 225 246 261
187 190 191 193 196 198 204 217 242 282 306 307 316 332 342 321 309 305 323 338 342 360 2 12 355 257 190 168 163 154 182 193 202 197 194 203 204 198 208 213 228 249 264
180 179 173 170 170 178 188 198 243 283 299 306 316 352 343 346 346 332 329 336 336 343 358 6 73 127 154 165 197 181 173 199 188 219 209 202 198 192 191 217 245 246 265
182 172 164 163 159 150 137 132 112 15 351 316 300 321 322 304 296 308 316 317 322 322 315 240 165 159 159 156 192 178 172 187 164 172 183 186 186 191 214 247 235 249 273
183 176 167 162 156 146 143 123 56 34 26 18 357 337 331 317 293 279 292 308 317 320 316 264 231 220 216 205 183 194 191 191 186 165 151 164 194 220 230 258 208 247 261
180 170 163 162 162 158 150 112 56 29 22 12 1 345 334 329 328 325 314 317 324 321 307 296 244 237 217 220 201 224 206 206 204 210 211 220 244 255 240 224 204 237 316
173 169 165 162 160 161 151 124 69 25 2 353 349 340 339 332 327 325 319 313 321 320 304 297 265 251 238 224 227 213 210 213 213 227 240 251 253 244 247 214 212 224 291
176 167 168 169 166 171 162 161 338 343 334 330 331 326 324 320 316 310 313 324 331 327 327 288 283 280 261 239 234 224 219 283 237 230 243 266 261 221 239 220 214 223 234
161 160 164 159 160 168 187 195 255 284 301 309 317 322 320 311 301 298 298 300 303 298 304 296 286 284 283 275 248 237 223 216 242 239 236 248 245 231 232 225 224 228 221
178 182 180 169 167 186 202 266 296 307 310 309 312 315 314 311 294 290 291 291 296 296 292 282 278 283 278 272 275 252 239 232 227 232 247 238 237 232 236 230 233 230 228
179 162 175 172 167 192 276 297 308 307 306 304 309 312 316 310 296 277 280 275 277 274 276 283 271 268 271 270 259 256 256 245 234 232 231 233 234 230 231 228 225 225 231
169 156 164 168 216 271 292 299 300 300 298 300 304 319 321 322 321 317 301 292 281 270 275 275 276 273 272 265 257 251 249 253 248 243 239 232 230 233 228 228 223 226 221
163 171 187 211 206 277 296 299 299 297 302 305 311 323 326 337 332 330 323 314 307 306 286 279 276 276 270 270 268 260 253 244 250 250 245 237 228 221 228 228 229 224 223
178 181 161 165 166 197 295 305 308 315 333 330 336 339 332 322 328 328 325 322 316 311 303 297 283 270 270 266 270 272 263 255 243 243 253 243 228 224 225 229 228 224 215
142 130 118 118 102 77 59 38 21 16 5 359 4 1 350 333 318 322 317 314 311 308 300 297 294 282 268 267 266 266 266 258 244 237 239 241 238 228 229 228 226 230 211
109 102 95 83 72 65 55 48 39 29 14 5 357 352 349 348 340 330 324 321 318 310 306 305 306 299 287 269 274 272 264 261 252 243 239 245 242 237 232 236 228 222 212
109 100 88 75 63 57 51 44 37 25 12 6 356 353 356 347 337 328 326 324 324 326 328 326 320 312 306 297 280 270 263 257 258 247 242 240 244 239 233 236 223 220 216